Stations météo

réclame
Mon MeteoGroup
Perpignan, France (7747): Température de l'air & dewpoint: 11.10.2018 05:00:00 - 17.10.2018 05:00:00 (CEST)Perpignan, France (7747): Température de l'air 5cm: 11.10.2018 05:00:00 - 17.10.2018 05:00:00 (CEST)Perpignan, France (7747): Température de l'air -20cm & Température de l'air -100cm: 11.10.2018 05:00:00 - 17.10.2018 05:00:00 (CEST)Perpignan, France (7747): Vitesse du vent & gusts: 11.10.2018 05:00:00 - 17.10.2018 05:00:00 (CEST)Perpignan, France (7747): Direction du vent: 11.10.2018 05:00:00 - 17.10.2018 05:00:00 (CEST)Perpignan, France (7747): reduced air pressure: 11.10.2018 05:00:00 - 17.10.2018 05:00:00 (CEST)Perpignan, France (7747): visibility: 11.10.2018 05:00:00 - 17.10.2018 05:00:00 (CEST)Perpignan, France (7747): Quantités de précipitations: 11.10.2018 05:00:00 - 17.10.2018 05:00:00 (CEST)
Date & Time tt [°C] td [°C] tt 5cm [°C] tt -20cm [°C] tt -100cm [°C] ff [km/h] ff [knt] fx [km/h] fx [knt] dd ppp [hPa] vv [km] rr [mm]
17.10.2018 05:00:00 16,7 15,4 16,2 20,2 22,2 4 2 9 5 WNW 1017,5 15 0,0
17.10.2018 04:00:00 16,8 15,5 16,4 20,4 22,2 6 3 13 7 WSW 1017,9 14 0,0
17.10.2018 03:00:00 17,0 15,2 16,5 20,4 22,2 9 5 13 7 NNW 1018,3 14 0,0
17.10.2018 02:00:00 17,2 15,4 16,7 20,5 22,2 7 4 10 5 NNW 1018,6 12 0,0
17.10.2018 01:00:00 17,0 15,7 16,6 20,5 22,2 5 3 13 7 NNW 1018,8 11 0,2
17.10.2018 00:00:00 17,2 16,1 17,0 20,6 22,2 8 5 16 8 N 1018,9 8 0,0
16.10.2018 23:00:00 17,4 16,4 17,1 20,7 22,3 6 3 14 8 N 1018,9 8 4,6
16.10.2018 22:00:00 17,4 16,4 17,0 20,8 22,3 5 3 11 6 W 1018,8 12 0,0
16.10.2018 21:00:00 17,3 16,3 16,2 20,8 22,3 4 2 11 6 NW 1018,7 19 0,0
16.10.2018 20:00:00 16,6 15,3 16,1 20,9 22,3 10 5 18 10 SW 1018,4 1,3 7,3
16.10.2018 19:00:00 17,5 16,0 16,4 20,9 22,3 8 5 16 8 WSW 1017,5 3,3 3,4
16.10.2018 18:00:00 17,9 16,1 17,3 20,8 22,3 0 0 23 12 N 1017,3 12 1,0
16.10.2018 17:00:00 19,0 17,5 18,2 20,6 22,3 16 9 22 12 E 1017,0 19 0,8
16.10.2018 16:00:00 18,5 17,0 18,1 20,5 22,3 15 8 33 18 E 1017,1 4,5 3,6
16.10.2018 15:00:00 20,0 16,2 20,2 20,3 22,4 0 0 13 7 N 1016,7 42 0,0
16.10.2018 14:00:00 20,1 16,1 21,7 20,0 22,3 7 4 12 6 ENE 1016,9 17 0,0
16.10.2018 13:00:00 19,4 16,1 19,8 19,9 22,3 3 2 12 7 N 1017,1 58 0,0
16.10.2018 12:00:00 18,2 16,7 18,9 19,9 22,4 8 5 14 7 N 1016,8 60 0,2
16.10.2018 11:00:00 17,4 16,6 17,1 19,9 22,3 6 3 8 4 N 1016,6 38 0,6
16.10.2018 10:00:00 16,5 15,9 16,0 20,0 22,4 5 3 12 6 W 1016,2 6 1,2
16.10.2018 09:00:00 16,1 15,3 15,4 20,1 22,4 0 0 10 5 N 1015,7 20 0,0
16.10.2018 08:00:00 15,8 15,2 14,7 20,2 22,4 7 4 11 6 WSW 1014,7 59 0,0
16.10.2018 07:00:00 15,5 14,7 14,3 20,3 22,4 4 2 9 5 WSW 1014,1 41 0,0
16.10.2018 06:00:00 15,4 14,6 14,7 20,4 22,4 6 4 9 5 N 1013,7 45 0,0
16.10.2018 05:00:00 15,4 14,8 14,0 20,6 22,4 0 0 8 4 N 1013,1 51 0,0
16.10.2018 04:00:00 15,1 14,3 13,8 20,7 22,4 4 2 8 4 NNW 1012,9 60 0,0
16.10.2018 03:00:00 15,3 14,5 14,1 20,9 22,4 3 2 6 3 W 1013,1 60 0,0
16.10.2018 02:00:00 15,4 14,6 13,9 21,0 22,4 3 1 8 4 WSW 1012,8 60 0,0
16.10.2018 01:00:00 15,1 14,1 13,9 21,2 22,5 2 1 7 4 SSW 1012,4 60 0,0
16.10.2018 00:00:00 15,5 14,4 14,7 21,3 22,5 5 3 8 5 W 1012,0 60 0,0
15.10.2018 23:00:00 15,6 14,6 15,2 21,4 22,4 8 5 13 7 W 1011,7 60 0,0
15.10.2018 22:00:00 16,3 15,5 15,8 21,5 22,4 8 5 13 7 WNW 1011,4 3,8 7,5
15.10.2018 21:00:00 16,3 15,2 15,9 21,6 22,5 8 4 14 8 NW 1010,8 5 7,0
15.10.2018 20:00:00 16,4 14,9 16,0 21,6 22,5 10 5 14 7 W 1010,4 60 0,0
15.10.2018 19:00:00 16,9 15,4 16,5 21,6 22,5 15 8 23 13 NE 1009,8 8 1,6
15.10.2018 18:00:00 17,7 14,6 16,6 21,5 22,5 6 3 16 9 NW 1009,3 60 0,6
15.10.2018 17:00:00 19,9 14,0 20,4 21,3 22,5 3 1 10 5 W 1008,5 18 0,0
15.10.2018 16:00:00 20,0 13,9 21,1 21,1 22,5 2 1 13 7 SE 1008,0 60 0,0
15.10.2018 15:00:00 19,9 14,3 20,8 20,9 22,5 8 5 16 9 ENE 1007,8 60 0,0
15.10.2018 14:00:00 19,7 14,1 21,1 20,7 22,5 10 5 16 9 N 1007,6 60 0,0
15.10.2018 13:00:00 19,2 14,2 22,8 20,6 22,5 6 4 16 9 N 1008,0 51 0,0
15.10.2018 12:00:00 17,9 14,6 17,9 20,7 22,5 12 6 17 9 NW 1007,9 57 0,0
15.10.2018 11:00:00 16,7 13,4 16,0 20,7 22,5 3 2 17 9 N 1007,5 60 0,0
15.10.2018 10:00:00 15,8 13,6 14,6 20,8 22,5 8 5 29 16 ENE 1006,4 11 0,8
15.10.2018 09:00:00 15,6 13,6 14,9 20,9 22,5 15 8 32 18 NNW 1005,8 54 0,6
15.10.2018 08:00:00 16,8 14,8 16,4 21,0 22,5 18 10 70 38 WNW 1005,1 58 2,5
15.10.2018 07:00:00 17,8 16,5 17,3 21,0 22,5 28 15 67 36 SE 1004,4 6 11,7
15.10.2018 06:00:00 18,9 18,1 18,5 21,1 22,5 31 17 67 36 ESE 1004,4 1,0 13,7
15.10.2018 05:00:00 19,0 17,8 18,5 21,2 22,5 42 23 73 39 ESE 1004,8 2,5 5,0
15.10.2018 04:00:00 19,5 18,0 18,4 21,3 22,5 43 23 69 37 ESE 1005,4 7 0,8
15.10.2018 03:00:00 19,9 17,5 18,4 21,3 22,5 42 23 68 37 ESE 1006,1 12 1,4
15.10.2018 02:00:00 19,3 18,0 18,6 21,4 22,5 37 20 63 34 ESE 1006,8 3,3 8,6
15.10.2018 01:00:00 19,2 18,2 18,3 21,5 22,5 31 17 53 29 SE 1007,2 2,5 18,4
15.10.2018 00:00:00 19,1 18,1 18,7 21,6 22,5 34 18 60 33 ESE 1007,9 1,1 18,2
14.10.2018 23:00:00 19,5 18,3 18,8 21,6 22,5 29 16 56 30 ESE 1008,7 10 7,3
14.10.2018 22:00:00 19,4 18,2 18,9 21,7 22,5 23 12 42 23 SE 1009,4 1,8 2,8
14.10.2018 21:00:00 19,9 17,9 19,4 21,8 22,5 23 13 47 25 ESE 1009,8 11 0,0
14.10.2018 20:00:00 19,9 17,5 19,6 21,8 22,5 29 16 53 29 SE 1009,9 14 0,0
14.10.2018 19:00:00 20,0 17,8 19,6 21,9 22,5 23 13 45 24 SE 1009,7 12 0,0
14.10.2018 18:00:00 20,2 17,8 18,9 21,9 22,5 26 14 48 26 SE 1009,3 15 0,0
14.10.2018 17:00:00 19,7 17,8 19,1 21,9 22,5 29 16 49 27 SE 1009,0 10 3,4
14.10.2018 16:00:00 19,4 18,6 19,1 21,9 22,5 19 10 35 19 SE 1009,2 2,4 10,0
14.10.2018 15:00:00 19,6 18,6 19,5 21,7 22,5 28 15 50 27 SE 1009,6 0,9 6,1
14.10.2018 14:00:00 22,7 17,8 24,0 21,6 22,5 23 13 46 25 SSE 1009,8 35 0,0
14.10.2018 13:00:00 23,7 17,0 24,3 21,5 22,5 21 11 39 21 SSE 1010,5 59 0,0
14.10.2018 12:00:00 22,9 16,7 22,7 21,5 22,5 21 11 45 25 SSE 1010,7 40 0,0
14.10.2018 11:00:00 21,8 17,4 20,2 21,5 22,5 16 9 32 18 SSE 1011,2 42 0,0
14.10.2018 10:00:00 21,0 16,4 20,6 21,5 22,5 16 9 44 24 SSE 1011,3 49 0,0
14.10.2018 09:00:00 20,8 16,0 19,7 21,6 22,5 23 13 44 24 SSE 1011,1 55 0,0
14.10.2018 08:00:00 20,0 16,6 19,0 21,7 22,5 22 12 37 20 SE 1011,1 46 0,0
14.10.2018 07:00:00 19,5 16,7 18,8 21,8 22,5 20 11 45 24 SE 1011,3 38 0,0
14.10.2018 06:00:00 19,5 17,3 19,0 21,8 22,5 27 14 45 24 SE 1011,5 49 0,0
14.10.2018 05:00:00 19,9 17,5 19,4 21,9 22,5 24 13 46 25 SE 1011,7 40 0,0
14.10.2018 04:00:00 20,5 17,1 19,8 22,0 22,5 22 12 46 25 SSE 1012,0 45 0,0
14.10.2018 03:00:00 20,5 17,5 20,0 22,1 22,4 21 12 40 22 SE 1012,7 42 0,0
14.10.2018 02:00:00 20,7 17,9 20,5 22,1 22,4 22 12 40 22 SE 1013,3 35 0,0
14.10.2018 01:00:00 20,8 17,8 20,0 22,2 22,4 16 9 34 18 SE 1014,2 35 0,0
14.10.2018 00:00:00 20,2 18,1 20,0 22,3 22,4 18 10 38 20 ESE 1014,4 20 0,0
13.10.2018 23:00:00 20,6 17,8 20,1 22,4 22,5 23 12 37 20 SE 1014,5 29 0,0
13.10.2018 22:00:00 20,4 18,0 19,6 22,5 22,4 16 9 27 15 ESE 1015,1 29 0,0
13.10.2018 21:00:00 20,1 18,0 19,8 22,5 22,4 17 9 29 15 SE 1015,2 20 0,0
13.10.2018 20:00:00 20,5 18,1 20,1 22,5 22,4 16 9 31 17 SE 1015,5 28 0,0
13.10.2018 19:00:00 20,8 18,4 20,6 22,5 22,4 21 12 42 23 ESE 1015,6 27 0,0
13.10.2018 18:00:00 21,9 18,7 22,7 22,4 22,4 26 14 41 22 SE 1015,5 23 0,0
13.10.2018 17:00:00 22,8 19,2 24,0 22,3 22,4 29 16 44 24 ESE 1016,0 31 0,0
13.10.2018 16:00:00 22,5 19,1 24,2 22,1 22,4 29 16 53 29 SE 1016,6 39 0,0
13.10.2018 15:00:00 23,2 19,4 25,1 21,9 22,4 28 15 46 25 SE 1017,2 46 0,0
13.10.2018 14:00:00 23,1 19,1 25,3 21,7 22,4 31 17 48 26 SE 1017,9 59 0,0
13.10.2018 13:00:00 23,0 19,2 24,6 21,6 22,4 27 15 44 24 SE 1018,8 49 0,0
13.10.2018 12:00:00 22,2 19,0 23,0 21,5 22,4 26 14 41 22 SE 1019,1 28 0,0
13.10.2018 11:00:00 22,1 19,1 21,4 21,5 22,4 23 12 42 23 SE 1019,4 23 0,0
13.10.2018 10:00:00 20,6 18,9 20,4 21,6 22,4 23 12 36 20 SE 1019,9 20 0,0
13.10.2018 09:00:00 19,9 18,7 19,2 21,6 22,4 21 12 36 19 SE 1019,6 16 0,0
13.10.2018 08:00:00 19,6 18,4 19,1 21,7 22,4 16 9 29 15 SE 1019,4 18 0,0
13.10.2018 07:00:00 19,6 18,4 19,1 21,7 22,4 16 9 28 15 SE 1019,8 15 0,0
13.10.2018 06:00:00 19,9 18,6 19,7 21,8 22,4 14 7 24 13 ESE 1020,1 18 0,0
13.10.2018 05:00:00 19,8 18,6 19,3 21,8 22,4 10 5 21 11 SE 1020,5 17 0,0
13.10.2018 04:00:00 19,8 18,6 19,5 21,8 22,4 9 5 22 12 SE 1020,9 15 0,0
13.10.2018 03:00:00 20,0 18,8 19,9 21,9 22,4 8 4 20 11 SE 1021,6 15 0,0
13.10.2018 02:00:00 20,0 18,8 20,0 21,9 22,4 11 6 27 15 SE 1021,8 13 0,0
13.10.2018 01:00:00 20,1 18,9 20,0 22,0 22,4 13 7 28 15 SE 1022,0 13 0,0
13.10.2018 00:00:00 20,1 18,9 20,1 22,0 22,4 14 8 23 12 SE 1022,4 11 0,0
12.10.2018 23:00:00 20,1 18,9 19,9 22,1 22,4 11 6 19 11 SE 1022,6 12 0,0
12.10.2018 22:00:00 20,1 18,8 19,9 22,1 22,4 10 6 18 10 SE 1022,4 13 0,0
12.10.2018 21:00:00 20,4 19,1 20,3 22,1 22,4 11 6 34 18 SE 1022,2 13 0,0
12.10.2018 20:00:00 20,6 19,1 20,6 22,1 22,4 19 10 36 20 SE 1021,9 16 0,0
12.10.2018 19:00:00 20,9 19,0 21,0 22,1 22,4 24 13 40 22 SE 1021,3 18 0,0
12.10.2018 18:00:00 21,4 19,0 22,1 21,9 22,4 28 15 46 25 SE 1020,8 20 0,0
12.10.2018 17:00:00 22,2 19,4 23,2 21,8 22,4 29 16 48 26 ESE 1020,7 19 0,0
12.10.2018 16:00:00 23,2 19,4 25,1 21,5 22,4 28 15 48 26 SE 1020,6 19 0,0
12.10.2018 15:00:00 23,5 19,4 25,7 21,3 22,4 27 15 46 25 ESE 1020,8 20 0,0
12.10.2018 14:00:00 23,7 20,0 25,0 21,1 22,4 25 13 43 23 SE 1021,2 20 0,0
12.10.2018 13:00:00 23,6 19,9 24,1 20,9 22,4 24 13 39 21 ESE 1021,7 19 0,0
12.10.2018 12:00:00 21,8 19,9 21,9 20,8 22,4 16 8 25 13 SE 1021,9 19 0,0
12.10.2018 11:00:00 20,4 18,2 22,1 20,8 22,4 5 3 12 7 E 1022,1 12 0,0
12.10.2018 10:00:00 19,1 17,8 19,5 20,8 22,4 0 0 5 3 N 1021,9 9 0,0
12.10.2018 09:00:00 18,4 17,6 17,4 20,8 22,4 0 0 6 3 N 1021,2 7 0,0
12.10.2018 08:00:00 18,8 18,0 17,8 20,9 22,4 0 0 3 2 N 1020,3 3,0 0,0
12.10.2018 07:00:00 18,7 17,9 16,5 20,9 22,4 0 0 4 2 N 1019,5 0,8 0,0
12.10.2018 06:00:00 18,8 17,8 17,0 20,9 22,4 0 0 5 3 N 1019,1 2,7 0,0
12.10.2018 05:00:00 18,6 17,4 17,9 21,0 22,4 3 2 8 4 ENE 1018,8 14 0,0
12.10.2018 04:00:00 18,4 17,1 18,1 21,0 22,4 6 3 8 5 WSW 1018,5 15 0,0
12.10.2018 03:00:00 18,9 17,7 18,4 21,0 22,4 0 0 7 4 N 1018,5 9 0,0
12.10.2018 02:00:00 19,0 18,0 18,5 21,1 22,4 5 3 11 6 N 1018,3 7 0,0
12.10.2018 01:00:00 18,7 17,5 18,2 21,1 22,4 7 4 10 5 NNW 1017,9 10 0,0
12.10.2018 00:00:00 18,7 17,2 18,1 21,2 22,5 3 1 4 2 WNW 1017,7 15 0,0
11.10.2018 23:00:00 18,5 17,3 16,1 21,3 22,5 3 1 7 4 SSW 1017,1 15 0,0
11.10.2018 22:00:00 18,8 17,3 17,9 21,3 22,5 6 3 10 5 W 1016,5 15 0,0
11.10.2018 21:00:00 19,5 17,8 17,0 21,4 22,5 4 2 13 7 SSW 1015,6 19 0,0
11.10.2018 20:00:00 19,7 17,7 17,3 21,4 22,5 0 0 11 6 N 1015,0 20 0,0
11.10.2018 19:00:00 20,3 17,7 19,8 21,3 22,5 8 4 18 10 NNE 1014,2 26 0,0
11.10.2018 18:00:00 21,2 17,8 22,5 21,1 22,5 11 6 20 11 NNE 1013,5 33 0,0
11.10.2018 17:00:00 22,1 17,9 23,3 20,8 22,5 12 6 19 11 NE 1012,8 41 0,0
11.10.2018 16:00:00 22,3 16,3 24,0 20,5 22,5 13 7 23 13 ENE 1012,6 52 0,0
11.10.2018 15:00:00 22,4 16,4 25,1 20,2 22,5 15 8 25 13 NE 1012,7 39 0,0
11.10.2018 14:00:00 22,6 17,1 28,2 19,9 22,6 14 8 22 12 NE 1012,6 56 0,0
11.10.2018 13:00:00 21,6 16,1 23,8 19,7 22,5 12 7 19 10 NE 1012,7 54 0,0
11.10.2018 12:00:00 21,2 17,2 23,7 19,5 22,5 7 4 14 7 ENE 1012,9 43 0,0
11.10.2018 11:00:00 19,7 18,2 22,4 19,5 22,6 4 2 9 5 E 1012,6 18 0,0
11.10.2018 10:00:00 17,3 16,8 16,4 19,6 22,6 0 0 9 5 N 1012,4 10 0,0
11.10.2018 09:00:00 15,5 15,0 13,9 19,7 22,6 7 4 9 5 WSW 1011,6 12 0,0
11.10.2018 08:00:00 14,8 14,3 12,2 19,7 22,6 3 1 8 4 ESE 1010,7 0,2 0,2
11.10.2018 07:00:00 14,8 14,2 12,6 19,8 22,6 6 3 10 5 W 1010,5 4,0 0,0
11.10.2018 06:00:00 15,0 14,4 12,5 19,9 22,6 9 5 11 6 WSW 1010,5 2,9 0,0
11.10.2018 05:00:00 16,3 15,7 13,5 20,0 22,6 5 3 9 5 NW 1010,2 7 0,0

tt = Température de l'air
td = dewpoint
tt 5cm = Température de l'air 5cm
tt -20cm = Température de l'air -20cm
tt -100cm = Température de l'air -100cm
ff = Vitesse du vent
fx = gusts
dd = Direction du vent
ppp = reduced air pressure
vv = visibility
rr = Quantités de précipitations

stations d'obs. à proximité